Flag for U.S.A. Weather past 2 weeks in San Antonio, Texas, U.S.A.

Now
60 °F

Partly cloudy.


Feels Like: 60 °F
Forecast: 58 / 71 °F
Wind: 10 mph from Southeast

Location: San Antonio International Airport


UV Index: 0 (Low)

Visibility: 10 mi


Pressure: 29.96 "Hg

Humidity: 72%

Dew point: 51 °F

Location of San AntonioLocation

Historic Weather in San Antonio

°F

San Antonio temperature yesterday

Maximum temperature yesterday: 75 °F (at 4:51 PM)
Minimum temperature yesterday: 43 °F (at 5:51 AM)
Average temperature yesterday: 60 °F

Past Weeks' High & Low Weather Summary

 TemperatureHumidityPressure
High89 °F (Apr 10, 3:51 PM)97% (Apr 6, 7:51 AM)30.35 "Hg (Apr 6, 7:51 AM)
Low42 °F (Apr 15, 6:51 AM)14% (Apr 15, 4:51 PM)29.61 "Hg (Apr 13, 5:51 PM)
Average67 °F59%29.92 "Hg
* Reported Apr 1 11:51 PM — Apr 16 11:51 PM, San Antonio, Weather by CustomWeather, © 2014

Note: Actual official high and low records may vary slightly from our data, if they occured in-between our weather recording intervals... More about our weather records

Advertising

Historic Weather Conditions — Data for Previous 24 hours

 ConditionsComfort  
Time TempWeatherWind HumidityBarometerVisibility
11:51 PM
Apr 16
61 °FPassing clouds.13 mph67%29.95 "Hg10 mi
10:51 PM62 °FPassing clouds.16 mph62%29.94 "Hg10 mi
9:51 PM64 °FPassing clouds.20 mph56%29.92 "Hg10 mi
8:51 PM66 °FPartly sunny.16 mph49%29.91 "Hg10 mi
7:51 PM68 °FPartly sunny.21 mph44%29.89 "Hg10 mi
6:51 PM71 °FPartly sunny.17 mph38%29.88 "Hg10 mi
5:51 PM74 °FPartly sunny.16 mph35%29.89 "Hg10 mi
4:51 PM75 °FPartly sunny.15 mph30%29.89 "Hg10 mi
3:51 PM74 °FPartly sunny.15 mph29%29.92 "Hg10 mi
2:51 PM73 °FScattered clouds.14 mph28%29.96 "Hg10 mi
1:51 PM70 °FPassing clouds.16 mph32%29.99 "Hg10 mi
12:51 PM67 °FPassing clouds.10 mph39%30.03 "Hg10 mi
11:51 AM65 °FScattered clouds.13 mph40%30.06 "Hg10 mi
10:51 AM61 °FPartly sunny.20 mph50%30.08 "Hg10 mi
9:51 AM58 °FPartly sunny.10 mph47%30.09 "Hg10 mi
8:51 AM52 °FSunny.5 mph53%30.10 "Hg10 mi
7:51 AM45 °FClear.No wind68%30.09 "Hg10 mi
6:51 AM45 °FClear.No wind58%30.07 "Hg10 mi
5:51 AM43 °FClear.6 mph62%30.06 "Hg10 mi
4:51 AM45 °FClear.3 mph58%30.05 "Hg10 mi
3:51 AM47 °FClear.6 mph56%30.08 "Hg10 mi
2:51 AM45 °FClear.7 mph56%30.09 "Hg10 mi
1:51 AM50 °FClear.No wind44%30.11 "Hg10 mi
Weather by CustomWeather, © 2014

See weather overview